STARLINK-30450, 57913

Orbit data source: Space-Track

STARLINK-30450, 57913 is a payload satellite owned by SpaceX/Seattle (US) in LEO that was launched on Sun, 24 Sep 2023 UTC via an FALCON 9 launch vehicle from the Air Force Eastern Test Range (AFETR). Payload-class satellites include a variety of spacecraft equipped with specific instruments for various scientific and technological missions. These include communications satellites like Starlink; space stations such as the ISS; scientific satellites like the Hubble; Earth observation satellites from companies like Planet Labs, Umbra, and HawkEye 360; GPS; miniature CubeSats for education and research; and military/defense satellites.

Loading next visibility...
Identifier
57913, 2023-147A
Orbit
LEO
Country
Flag of USUS
Related business
Manufacturer
SpaceX/Seattle
Mission
Operational Commercial Communications
Bus & Motor
STARLINK V2M, Unknown motor
Mass
730 kg wet, ~700 kg dry
Launch date (UTC)
2023-09-24 (3 years ago)
Launch vehicle
FALCON 9
Launch site
Air Force Eastern Test Range (AFETR)
Object type
Payload
Rocket body
Debris
Shape & HBR
Box + 2 Pan, 17.7 m
Radar Cross Section
33.884 m², Large (>1 m²)

Expand to show TLE details & history
Last TLE update: 3 days ago

TLE from 3 days ago
0 STARLINK-30450
1 57913U 23147A   26170.96931041 -.00002479  00000-0 -80605-4 0  9998
2 57913  43.0031 107.3085 0001519 270.4375  89.6302 15.27566277152246
Epoch: 2026-06-19T23:15Z
TLE epoch observation values (Epoch: 2026-06-19T23:15:48.419Z)
Latitude
-0.00006°
Longitude
-149.83397°
Altitude
482.859 km
Speed
7.626 km/s
True Right ascension
07h 09m 14s
True Declination
0° 00' 00"
Sunlit
Object was in daylight at epoch
Visualization orbit readout
Latitude
Unknown
Longitude
Unknown
Altitude
Unknown
Speed
Unknown
Apparent Right ascension
Unknown
Apparent Declination
Unknown
Sunlit
N/A
Visualization observer readout
Local Sidereal Time
00:29:39
Azimuth
Unknown
Elevation
Unknown
Doppler factor
Unknown
Orbital elements
Apogee altitude
486.077 km
Perigee altitude
483.992 km
Semi-major axis
6,863.172 km
Eccentricity
0.00015
Inclination
43.0031°
RAAN
107.3085°
Arg. of periapsis
270.4375°
True anomaly
89.64761°
Mean anomaly
89.6302°
Eccentric anomaly
89.6389°
Mean motion
3.8173 °/min
Orbital period
94.31 mins
BSTAR
-0.000080605
Loading maneuver chart data...
Computing Atmospheric mass density...
Loading historical data...
Loading historical data...
Loading historical data...
Loading historical data...
Loading historical data...
Loading historical data...
Loading historical data...

Documentation

Showing up to 5 results
|